Meteo orario Bolshie Leznevichi

Oggi, 29 Settembre, Martedi

Tempo Temperatura Precipitazioni Vento Pressione Umidità
00:00 +9°C° 0 mm 3 m/s 739 mm Hg 80%
01:00 +9°C° 0 mm 3 m/s 739 mm Hg 80%
02:00 +8°C° 0 mm 3 m/s 739 mm Hg 81%
03:00 +8°C° 0 mm 3 m/s 738 mm Hg 80%
04:00 +8°C° 0 mm 4 m/s 738 mm Hg 78%
05:00 +8°C° 0 mm 4 m/s 738 mm Hg 77%
06:00 +8°C° 0 mm 4 m/s 738 mm Hg 75%
07:00 +10°C° 0 mm 4 m/s 738 mm Hg 73%
08:00 +10°C° 0 mm 5 m/s 738 mm Hg 69%
09:00 +12°C° 0 mm 4 m/s 738 mm Hg 67%
10:00 +13°C° 0 mm 4 m/s 738 mm Hg 64%
11:00 +14°C° 0 mm 4 m/s 738 mm Hg 61%
12:00 +15°C° 0 mm 4 m/s 738 mm Hg 58%
13:00 +17°C° 0 mm 4 m/s 737 mm Hg 55%
14:00 +18°C° 0 mm 4 m/s 737 mm Hg 52%
15:00 +17°C° 0 mm 4 m/s 737 mm Hg 57%
16:00 +17°C° 0 mm 4 m/s 736 mm Hg 61%
17:00 +15°C° 0 mm 4 m/s 736 mm Hg 65%
18:00 +14°C° 0 mm 4 m/s 736 mm Hg 70%
19:00 +13°C° 0 mm 4 m/s 736 mm Hg 75%
20:00 +12°C° 0 mm 4 m/s 736 mm Hg 80%
21:00 +12°C° 0 mm 4 m/s 736 mm Hg 82%
22:00 +12°C° 0 mm 4 m/s 736 mm Hg 83%
23:00 +13°C° 0 mm 4 m/s 736 mm Hg 85%

Domani, 30 Settembre, Mercoledi

Tempo Temperatura Precipitazioni Vento Pressione Umidità
00:00 +12°C° 0 mm 4 m/s 736 mm Hg 85%
01:00 +11°C° 0 mm 4 m/s 735 mm Hg 86%
02:00 +11°C° 0 mm 4 m/s 735 mm Hg 87%
03:00 +10°C° 0 mm 4 m/s 735 mm Hg 87%
04:00 +10°C° 0 mm 4 m/s 734 mm Hg 86%
05:00 +10°C° 0 mm 4 m/s 734 mm Hg 86%
06:00 +9°C° 0 mm 5 m/s 734 mm Hg 82%
07:00 +9°C° 0 mm 5 m/s 734 mm Hg 79%
08:00 +10°C° 0 mm 5 m/s 734 mm Hg 75%
09:00 +12°C° 0 mm 5 m/s 734 mm Hg 73%
10:00 +13°C° 0 mm 5 m/s 734 mm Hg 71%
11:00 +14°C° 0 mm 5 m/s 734 mm Hg 69%
12:00 +14°C° 0 mm 5 m/s 734 mm Hg 67%
13:00 +15°C° 0 mm 6 m/s 734 mm Hg 65%
14:00 +16°C° 0 mm 6 m/s 733 mm Hg 64%
15:00 +15°C° 0 mm 5 m/s 733 mm Hg 64%
16:00 +15°C° 0 mm 5 m/s 733 mm Hg 65%
17:00 +14°C° 0 mm 5 m/s 733 mm Hg 66%
18:00 +14°C° 0 mm 5 m/s 734 mm Hg 63%
19:00 +13°C° 0 mm 5 m/s 734 mm Hg 61%
20:00 +12°C° 0 mm 5 m/s 734 mm Hg 59%
21:00 +12°C° 0 mm 4 m/s 734 mm Hg 61%
22:00 +11°C° 0 mm 4 m/s 733 mm Hg 62%
23:00 +10°C° 0 mm 4 m/s 733 mm Hg 64%

Dopodomani, 1 Ottobre, Giovedi

Tempo Temperatura Precipitazioni Vento Pressione Umidità
00:00 +10°C° 0 mm 4 m/s 733 mm Hg 65%
01:00 +8°C° 0 mm 4 m/s 733 mm Hg 67%
02:00 +8°C° 0 mm 4 m/s 733 mm Hg 68%
03:00 +8°C° 0 mm 4 m/s 733 mm Hg 67%
04:00 +8°C° 0 mm 4 m/s 732 mm Hg 66%
05:00 +8°C° 0 mm 4 m/s 732 mm Hg 65%
06:00 +9°C° 0 mm 5 m/s 732 mm Hg 63%
07:00 +9°C° 0 mm 5 m/s 732 mm Hg 62%
08:00 +10°C° 0 mm 5 m/s 732 mm Hg 60%
09:00 +11°C° 0 mm 6 m/s 732 mm Hg 62%
10:00 +14°C° 0 mm 6 m/s 732 mm Hg 64%
11:00 +15°C° 0 mm 7 m/s 732 mm Hg 66%
12:00 +15°C° 0 mm 7 m/s 732 mm Hg 67%
13:00 +16°C° 0 mm 7 m/s 733 mm Hg 68%
14:00 +16°C° 0 mm 6 m/s 733 mm Hg 70%
15:00 +16°C° 0.1 mm 6 m/s 733 mm Hg 71%
16:00 +15°C° 0.1 mm 5 m/s 733 mm Hg 72%
17:00 +15°C° 0.1 mm 4 m/s 733 mm Hg 74%
18:00 +14°C° 0 mm 4 m/s 733 mm Hg 77%
19:00 +13°C° 0 mm 5 m/s 734 mm Hg 81%
20:00 +12°C° 0 mm 5 m/s 734 mm Hg 84%
21:00 +12°C° 0 mm 5 m/s 734 mm Hg 83%
22:00 +12°C° 0 mm 5 m/s 734 mm Hg 82%
23:00 +10°C° 0 mm 5 m/s 734 mm Hg 81%

2 Ottobre, Venerdi

Tempo Temperatura Precipitazioni Vento Pressione Umidità
00:00 +10°C° 0 mm 5 m/s 734 mm Hg 82%
01:00 +9°C° 0 mm 5 m/s 734 mm Hg 83%
02:00 +10°C° 0 mm 4 m/s 734 mm Hg 83%
03:00 +8°C° 0 mm 4 m/s 734 mm Hg 84%
04:00 +8°C° 0 mm 4 m/s 734 mm Hg 84%
05:00 +8°C° 0 mm 5 m/s 734 mm Hg 85%
06:00 +8°C° 0 mm 5 m/s 734 mm Hg 83%
07:00 +9°C° 0 mm 5 m/s 734 mm Hg 81%
08:00 +9°C° 0 mm 5 m/s 734 mm Hg 79%
09:00 +10°C° 0 mm 5 m/s 734 mm Hg 76%
10:00 +12°C° 0 mm 5 m/s 735 mm Hg 74%
11:00 +14°C° 0 mm 6 m/s 735 mm Hg 71%
12:00 +14°C° 0 mm 6 m/s 735 mm Hg 69%
13:00 +15°C° 0 mm 5 m/s 735 mm Hg 68%
14:00 +16°C° 0 mm 5 m/s 735 mm Hg 66%
15:00 +16°C° 0 mm 5 m/s 735 mm Hg 68%
16:00 +15°C° 0 mm 4 m/s 735 mm Hg 71%
17:00 +15°C° 0 mm 4 m/s 735 mm Hg 73%
18:00 +14°C° 0.1 mm 4 m/s 735 mm Hg 76%
19:00 +13°C° 0.1 mm 5 m/s 735 mm Hg 80%
20:00 +12°C° 0.1 mm 5 m/s 735 mm Hg 83%
21:00 +12°C° 0.2 mm 5 m/s 736 mm Hg 84%
22:00 +12°C° 0.2 mm 5 m/s 736 mm Hg 86%
23:00 +12°C° 0.2 mm 5 m/s 736 mm Hg 88%

3 Ottobre, Sabato

Tempo Temperatura Precipitazioni Vento Pressione Umidità
00:00 +12°C° 0 mm 5 m/s 736 mm Hg 88%
01:00 +10°C° 0 mm 5 m/s 736 mm Hg 88%
02:00 +10°C° 0 mm 5 m/s 736 mm Hg 88%
03:00 +10°C° 0 mm 5 m/s 736 mm Hg 89%
04:00 +9°C° 0 mm 5 m/s 736 mm Hg 90%
05:00 +9°C° 0 mm 5 m/s 736 mm Hg 90%
06:00 +9°C° 0 mm 5 m/s 736 mm Hg 89%
07:00 +9°C° 0 mm 5 m/s 736 mm Hg 87%
08:00 +10°C° 0 mm 5 m/s 736 mm Hg 85%
09:00 +12°C° 0 mm 5 m/s 736 mm Hg 81%
10:00 +13°C° 0 mm 5 m/s 736 mm Hg 77%
11:00 +14°C° 0 mm 5 m/s 736 mm Hg 73%
12:00 +15°C° 0 mm 5 m/s 736 mm Hg 72%
13:00 +16°C° 0 mm 5 m/s 736 mm Hg 70%
14:00 +16°C° 0 mm 5 m/s 736 mm Hg 69%
15:00 +16°C° 0.1 mm 5 m/s 736 mm Hg 72%
16:00 +15°C° 0.1 mm 5 m/s 736 mm Hg 76%
17:00 +14°C° 0.1 mm 5 m/s 736 mm Hg 79%
18:00 +14°C° 0 mm 5 m/s 736 mm Hg 82%
19:00 +13°C° 0 mm 5 m/s 736 mm Hg 85%
20:00 +13°C° 0 mm 5 m/s 736 mm Hg 87%
21:00 +13°C° 0.1 mm 5 m/s 736 mm Hg 87%
22:00 +13°C° 0.1 mm 6 m/s 736 mm Hg 87%
23:00 +13°C° 0.1 mm 6 m/s 736 mm Hg 87%

4 Ottobre, Domenica

Tempo Temperatura Precipitazioni Vento Pressione Umidità
00:00 +13°C° 0 mm 6 m/s 736 mm Hg 88%
01:00 +13°C° 0 mm 6 m/s 735 mm Hg 89%
02:00 +13°C° 0 mm 6 m/s 735 mm Hg 89%
03:00 +13°C° 0.5 mm 6 m/s 735 mm Hg 90%
04:00 +12°C° 0.5 mm 7 m/s 735 mm Hg 91%
05:00 +12°C° 0.5 mm 7 m/s 735 mm Hg 92%
06:00 +12°C° 0.2 mm 7 m/s 735 mm Hg 91%
07:00 +12°C° 0.2 mm 8 m/s 735 mm Hg 90%
08:00 +12°C° 0.2 mm 8 m/s 735 mm Hg 89%
09:00 +13°C° 0.1 mm 8 m/s 735 mm Hg 88%
10:00 +13°C° 0.1 mm 8 m/s 735 mm Hg 87%
11:00 +13°C° 0.1 mm 9 m/s 735 mm Hg 87%
12:00 +15°C° 0 mm 9 m/s 735 mm Hg 85%
13:00 +15°C° 0 mm 9 m/s 735 mm Hg 83%
14:00 +16°C° 0 mm 9 m/s 735 mm Hg 81%
15:00 +15°C° 0 mm 9 m/s 735 mm Hg 82%
16:00 +15°C° 0 mm 9 m/s 734 mm Hg 82%
17:00 +15°C° 0 mm 9 m/s 734 mm Hg 82%
18:00 +15°C° 0 mm 9 m/s 734 mm Hg 83%
19:00 +13°C° 0 mm 9 m/s 734 mm Hg 83%
20:00 +13°C° 0 mm 9 m/s 735 mm Hg 83%
21:00 +13°C° 0.3 mm 8 m/s 735 mm Hg 85%
22:00 +13°C° 0.3 mm 8 m/s 735 mm Hg 87%
23:00 +13°C° 0.3 mm 8 m/s 735 mm Hg 89%
Mostrare altro